Location: Sibbertoft
(52.4361°N, 1.0300°W)
Time: 03:21:18
(UTC+01:00)

OTV 5 (USA 277) - Visible Passes

Search period start: 16 October 2019 00:00
Search period end: 26 October 2019 00:00
Orbit: 310 x 324 km, 54.5° (Epoch: 08 October)

Date Brightness Start Highest point End Pass type
(mag) Time Alt. Az. Time Alt. Az. Time Alt. Az.
16 Oct ? 05:07:19 28° E 05:07:19 28° E 05:08:49 10° E visible
16 Oct ? 06:38:13 13° W 06:40:18 34° SSW 06:42:50 10° SE visible
17 Oct ? 05:21:37 37° ESE 05:21:37 37° ESE 05:23:26 10° ESE visible
17 Oct ? 06:52:41 10° W 06:54:41 18° SW 06:56:39 10° S visible
18 Oct ? 05:36:01 33° SSE 05:36:01 33° SSE 05:37:51 10° SE visible
19 Oct ? 05:50:31 21° S 05:50:31 21° S 05:51:57 10° SSE visible
20 Oct ? 06:05:08 11° SSW 06:05:08 11° SSW 06:05:19 10° SSW visible
